TGW281 WADD-WSSS

Flight info

Callsign TGW281
Flight time 2h 18m
Altitude 40000
Route BORGI DCT UDONO M635 SURGA T23 UGEBO UGEBO1B
Aircraft B789/H-SDE1E2E3FGHIJ2J3J4J5M1RWXY/LB1D1

Departure

Time 2026-05-08 03:13
Airport Denpasar I Gusti Ngurah Rai International Airport (WADD)

Arrival

Time 2026-05-08 05:32
Airport Singapore Changi Airport (WSSS)
Time Latitude Longitude Altitude Speed Heading
2026-05-08 02:58 -8.74559 115.16672 38 ft 0 kts 358°
2026-05-08 03:05 -8.74574 115.16673 38 ft 2 kts 355°
2026-05-08 03:06 -8.74591 115.16675 37 ft 2 kts 352°
2026-05-08 03:06 -8.74607 115.16678 38 ft 2 kts 347°
2026-05-08 03:06 -8.74623 115.16683 34 ft 2 kts 341°
2026-05-08 03:06 -8.74638 115.16689 37 ft 2 kts 334°
2026-05-08 03:07 -8.74653 115.16698 35 ft 2 kts 322°
2026-05-08 03:07 -8.74665 115.16709 33 ft 2 kts 308°
2026-05-08 03:07 -8.74673 115.16723 38 ft 2 kts 292°
2026-05-08 03:07 -8.74677 115.16739 37 ft 2 kts 278°
2026-05-08 03:08 -8.74678 115.16751 37 ft 1 kts 270°
2026-05-08 03:08 -8.74678 115.16753 37 ft 0 kts 269°
2026-05-08 03:09 -8.74679 115.16744 37 ft 4 kts 268°
2026-05-08 03:09 -8.74680 115.16699 37 ft 9 kts 268°
2026-05-08 03:09 -8.74683 115.16616 36 ft 14 kts 267°
2026-05-08 03:09 -8.74688 115.16499 38 ft 19 kts 268°
2026-05-08 03:10 -8.74694 115.16360 38 ft 20 kts 268°
2026-05-08 03:10 -8.74701 115.16210 38 ft 23 kts 267°
2026-05-08 03:10 -8.74707 115.16038 38 ft 26 kts 268°
2026-05-08 03:10 -8.74715 115.15831 38 ft 32 kts 267°
2026-05-08 03:11 -8.74725 115.15603 38 ft 36 kts 268°
2026-05-08 03:11 -8.74759 115.15399 37 ft 17 kts 214°
2026-05-08 03:11 -8.74870 115.15397 34 ft 17 kts 169°
2026-05-08 03:11 -8.74895 115.15424 34 ft 3 kts 100°
2026-05-08 03:12 -8.74895 115.15462 34 ft 8 kts 88°
2026-05-08 03:12 -8.74889 115.15605 34 ft 41 kts 87°
2026-05-08 03:12 -8.74869 115.16099 34 ft 100 kts 88°
2026-05-08 03:12 -8.74830 115.16991 34 ft 152 kts 87°
2026-05-08 03:13 -8.74750 115.18153 408 ft 165 kts 81°
2026-05-08 03:13 -8.74629 115.19265 1189 ft 161 kts 86°
2026-05-08 03:13 -8.74670 115.20439 1651 ft 171 kts 94°
2026-05-08 03:13 -8.74655 115.21702 2094 ft 188 kts 90°
2026-05-08 03:14 -8.74593 115.23047 2637 ft 202 kts 89°
2026-05-08 03:14 -8.74528 115.24519 3151 ft 217 kts 89°
2026-05-08 03:14 -8.74465 115.26095 3661 ft 231 kts 88°
2026-05-08 03:14 -8.74371 115.27767 4150 ft 245 kts 85°
2026-05-08 03:15 -8.73605 115.29396 4576 ft 272 kts 50°
2026-05-08 03:15 -8.72112 115.30525 5637 ft 273 kts 28°
2026-05-08 03:15 -8.70237 115.30936 6475 ft 279 kts
2026-05-08 03:15 -8.68283 115.30668 7173 ft 288 kts 344°
2026-05-08 03:16 -8.66527 115.29664 7908 ft 294 kts 319°
2026-05-08 03:16 -8.65035 115.28260 8853 ft 292 kts 318°
2026-05-08 03:16 -8.63540 115.26888 9747 ft 294 kts 318°
2026-05-08 03:16 -8.62029 115.25524 10419 ft 300 kts 318°
2026-05-08 03:17 -8.60436 115.24079 10853 ft 315 kts 317°
2026-05-08 03:17 -8.58765 115.22555 11291 ft 331 kts 317°
2026-05-08 03:17 -8.57019 115.20963 11735 ft 346 kts 317°
2026-05-08 03:17 -8.55189 115.19299 12160 ft 361 kts 317°
2026-05-08 03:18 -8.53297 115.17579 12772 ft 369 kts 317°
2026-05-08 03:18 -8.51375 115.15831 13517 ft 374 kts 317°
2026-05-08 03:18 -8.49431 115.14060 14186 ft 378 kts 316°
2026-05-08 03:18 -8.47468 115.12275 14858 ft 382 kts 316°
2026-05-08 03:19 -8.45482 115.10469 15532 ft 386 kts 316°
2026-05-08 03:19 -8.43465 115.08635 16202 ft 390 kts 316°
2026-05-08 03:19 -8.41433 115.06788 16855 ft 394 kts 315°
2026-05-08 03:19 -8.39386 115.04927 17507 ft 398 kts 315°
2026-05-08 03:20 -8.37309 115.03042 18155 ft 402 kts 315°
2026-05-08 03:20 -8.35218 115.01142 18732 ft 406 kts 316°
2026-05-08 03:20 -8.33115 114.99231 19285 ft 408 kts 316°
2026-05-08 03:20 -8.30998 114.97306 19858 ft 411 kts 316°
2026-05-08 03:21 -8.28864 114.95369 20398 ft 413 kts 316°
2026-05-08 03:21 -8.26716 114.93418 20941 ft 416 kts 316°
2026-05-08 03:21 -8.24556 114.91458 21512 ft 419 kts 316°
2026-05-08 03:21 -8.22411 114.89511 22073 ft 421 kts 316°
2026-05-08 03:22 -8.20220 114.87521 22625 ft 424 kts 317°
2026-05-08 03:22 -8.18020 114.85524 23155 ft 427 kts 317°
2026-05-08 03:22 -8.15794 114.83505 23640 ft 430 kts 317°
2026-05-08 03:22 -8.13561 114.81479 24057 ft 433 kts 317°
2026-05-08 03:23 -8.11283 114.79413 24158 ft 446 kts 317°
2026-05-08 03:23 -8.08943 114.77289 24166 ft 460 kts 317°
2026-05-08 03:23 -8.06532 114.75103 24176 ft 472 kts 317°
2026-05-08 03:23 -8.04055 114.72858 24199 ft 484 kts 317°
2026-05-08 03:24 -8.01528 114.70568 24211 ft 495 kts 317°
2026-05-08 03:24 -7.98972 114.68251 24248 ft 505 kts 317°
2026-05-08 03:24 -7.96329 114.65856 24307 ft 513 kts 317°
2026-05-08 03:24 -7.93663 114.63440 24552 ft 517 kts 317°
2026-05-08 03:25 -7.90985 114.61015 24855 ft 519 kts 317°
2026-05-08 03:25 -7.88293 114.58577 25139 ft 521 kts 317°
2026-05-08 03:25 -7.85595 114.56134 25533 ft 521 kts 317°
2026-05-08 03:25 -7.82891 114.53686 25960 ft 521 kts 317°
2026-05-08 03:26 -7.80199 114.51249 26401 ft 520 kts 317°
2026-05-08 03:26 -7.77508 114.48813 26871 ft 519 kts 317°
2026-05-08 03:26 -7.74814 114.46376 27325 ft 518 kts 317°
2026-05-08 03:26 -7.72162 114.43977 27786 ft 517 kts 317°
2026-05-08 03:27 -7.69482 114.41553 28260 ft 517 kts 317°
2026-05-08 03:27 -7.66808 114.39134 28748 ft 516 kts 317°
2026-05-08 03:27 -7.64135 114.36717 29243 ft 515 kts 317°
2026-05-08 03:27 -7.61473 114.34311 29728 ft 514 kts 317°
2026-05-08 03:28 -7.58807 114.31901 30199 ft 513 kts 317°
2026-05-08 03:28 -7.56133 114.29522 30646 ft 512 kts 320°
2026-05-08 03:28 -7.53288 114.27405 31039 ft 512 kts 324°
2026-05-08 03:28 -7.50384 114.25339 31520 ft 510 kts 324°
2026-05-08 03:29 -7.47500 114.23271 32021 ft 508 kts 324°
2026-05-08 03:29 -7.44648 114.21177 32523 ft 506 kts 323°
2026-05-08 03:29 -7.41850 114.19123 33015 ft 504 kts 324°
2026-05-08 03:29 -7.39000 114.17064 33522 ft 502 kts 324°
2026-05-08 03:30 -7.33343 114.12972 34430 ft 499 kts 324°
2026-05-08 03:30 -7.27730 114.08887 35294 ft 496 kts 324°
2026-05-08 03:31 -7.22136 114.04839 36118 ft 494 kts 323°
2026-05-08 03:31 -7.16596 114.00815 36918 ft 492 kts 323°
2026-05-08 03:32 -7.13828 113.98809 37308 ft 491 kts 323°
2026-05-08 03:32 -7.11055 113.96802 37709 ft 490 kts 323°
2026-05-08 03:32 -7.08290 113.94798 38093 ft 489 kts 323°
2026-05-08 03:32 -7.05532 113.92798 38478 ft 488 kts 323°
2026-05-08 03:33 -7.02778 113.90802 38797 ft 487 kts 323°
2026-05-08 03:33 -7.00025 113.88809 39125 ft 486 kts 323°
2026-05-08 03:33 -6.97281 113.86823 39442 ft 485 kts 323°
2026-05-08 03:33 -6.94541 113.84839 39697 ft 485 kts 322°
2026-05-08 03:34 -6.91788 113.82845 39846 ft 487 kts 322°
2026-05-08 03:34 -6.86316 113.78887 39862 ft 481 kts 322°
2026-05-08 03:35 -6.80939 113.74997 39860 ft 478 kts 322°
2026-05-08 03:35 -6.75543 113.71094 39861 ft 478 kts 322°
2026-05-08 03:36 -6.70147 113.67193 39862 ft 478 kts 322°
2026-05-08 03:36 -6.64736 113.63282 39864 ft 478 kts 323°
2026-05-08 03:37 -6.59331 113.59376 39860 ft 479 kts 323°
2026-05-08 03:37 -6.53914 113.55463 39860 ft 479 kts 323°
2026-05-08 03:38 -6.48496 113.51549 39860 ft 479 kts 323°
2026-05-08 03:38 -6.43081 113.47640 39861 ft 479 kts 323°
2026-05-08 03:39 -6.37663 113.43729 39860 ft 479 kts 323°
2026-05-08 03:39 -6.32223 113.39802 39878 ft 486 kts 323°
2026-05-08 03:40 -6.26684 113.35794 39883 ft 494 kts 321°
2026-05-08 03:40 -6.24151 113.33449 39871 ft 496 kts 310°
2026-05-08 03:40 -6.22032 113.30749 39887 ft 499 kts 306°
2026-05-08 03:41 -6.17811 113.25185 39873 ft 501 kts 307°
2026-05-08 03:41 -6.13531 113.19661 39879 ft 500 kts 306°
2026-05-08 03:42 -6.09298 113.14120 39879 ft 500 kts 307°
2026-05-08 03:42 -6.05037 113.08596 39877 ft 500 kts 307°
2026-05-08 03:43 -6.01504 113.03991 39879 ft 500 kts 307°
2026-05-08 03:43 -5.96555 112.97557 39870 ft 500 kts 307°
2026-05-08 03:44 -5.92993 112.92927 39873 ft 500 kts 307°
2026-05-08 03:44 -5.88828 112.87511 39872 ft 500 kts 307°
2026-05-08 03:45 -5.84572 112.81984 39870 ft 500 kts 307°
2026-05-08 03:45 -5.80325 112.76465 39873 ft 500 kts 307°
2026-05-08 03:46 -5.76066 112.70935 39871 ft 500 kts 307°
2026-05-08 03:46 -5.71834 112.65439 39873 ft 500 kts 307°
2026-05-08 03:47 -5.67578 112.59917 39873 ft 500 kts 307°
2026-05-08 03:47 -5.63311 112.54379 39872 ft 501 kts 307°
2026-05-08 03:48 -5.59048 112.48849 39873 ft 501 kts 307°
2026-05-08 03:48 -5.54771 112.43303 39870 ft 501 kts 307°
2026-05-08 03:49 -5.50529 112.37803 39877 ft 502 kts 307°
2026-05-08 03:49 -5.46246 112.32252 39871 ft 502 kts 307°
2026-05-08 03:50 -5.41964 112.26702 39875 ft 502 kts 307°
2026-05-08 03:50 -5.37679 112.21152 39875 ft 503 kts 307°
2026-05-08 03:51 -5.33418 112.15633 39878 ft 503 kts 307°
2026-05-08 03:51 -5.29122 112.10069 39879 ft 503 kts 307°
2026-05-08 03:52 -5.24833 112.04517 39878 ft 503 kts 307°
2026-05-08 03:52 -5.20539 111.98960 39879 ft 503 kts 308°
2026-05-08 03:53 -5.16283 111.93452 39876 ft 503 kts 308°
2026-05-08 03:53 -5.11996 111.87908 39873 ft 503 kts 308°
2026-05-08 03:54 -5.07706 111.82359 39874 ft 502 kts 308°
2026-05-08 03:54 -5.03425 111.76824 39877 ft 502 kts 308°
2026-05-08 03:55 -4.99130 111.71273 39872 ft 504 kts 308°
2026-05-08 03:55 -4.94828 111.65713 39875 ft 504 kts 308°
2026-05-08 03:56 -4.90528 111.60158 39879 ft 505 kts 308°
2026-05-08 03:56 -4.86245 111.54626 39874 ft 505 kts 308°
2026-05-08 03:57 -4.81929 111.49052 39876 ft 505 kts 309°
2026-05-08 03:57 -4.77618 111.43486 39875 ft 506 kts 309°
2026-05-08 03:58 -4.73298 111.37910 39877 ft 505 kts 309°
2026-05-08 03:58 -4.68987 111.32345 39879 ft 505 kts 309°
2026-05-08 03:59 -4.64699 111.26813 39877 ft 505 kts 309°
2026-05-08 03:59 -4.60381 111.21243 39878 ft 506 kts 309°
2026-05-08 04:00 -4.56091 111.15655 39878 ft 506 kts 309°
2026-05-08 04:00 -4.51779 111.10068 39872 ft 507 kts 309°
2026-05-08 04:01 -4.47472 111.04473 39873 ft 507 kts 309°
2026-05-08 04:01 -4.43149 110.98864 39875 ft 507 kts 309°
2026-05-08 04:02 -4.38828 110.93260 39877 ft 508 kts 309°
2026-05-08 04:02 -4.34510 110.87657 39875 ft 508 kts 309°
2026-05-08 04:03 -4.30356 110.82272 39874 ft 508 kts 309°
2026-05-08 04:03 -4.24015 110.74049 39871 ft 509 kts 309°
2026-05-08 04:04 -4.19680 110.68432 39875 ft 510 kts 309°
2026-05-08 04:04 -4.15331 110.62796 39874 ft 511 kts 309°
2026-05-08 04:05 -4.10982 110.57161 39872 ft 511 kts 309°
2026-05-08 04:05 -4.06622 110.51514 39873 ft 513 kts 309°
2026-05-08 04:06 -4.02283 110.45893 39874 ft 514 kts 309°
2026-05-08 04:06 -3.97902 110.40222 39874 ft 515 kts 309°
2026-05-08 04:07 -3.93329 110.34710 39874 ft 514 kts 313°
2026-05-08 04:07 -3.88661 110.29260 39875 ft 515 kts 312°
2026-05-08 04:08 -3.83995 110.23823 39872 ft 514 kts 312°
2026-05-08 04:08 -3.79350 110.18415 39870 ft 515 kts 312°
2026-05-08 04:09 -3.74679 110.12968 39873 ft 515 kts 312°
2026-05-08 04:09 -3.70008 110.07531 39869 ft 514 kts 312°
2026-05-08 04:10 -3.65342 110.02096 39867 ft 515 kts 312°
2026-05-08 04:10 -3.60689 109.96678 39865 ft 515 kts 312°
2026-05-08 04:11 -3.56018 109.91240 39870 ft 515 kts 312°
2026-05-08 04:11 -3.51336 109.85792 39868 ft 515 kts 312°
2026-05-08 04:12 -3.46661 109.80351 39868 ft 515 kts 312°
2026-05-08 04:12 -3.41973 109.74896 39870 ft 515 kts 312°
2026-05-08 04:13 -3.37328 109.69493 39867 ft 515 kts 312°
2026-05-08 04:13 -3.32650 109.64050 39875 ft 515 kts 312°
2026-05-08 04:14 -3.27968 109.58606 39874 ft 515 kts 312°
2026-05-08 04:14 -3.23292 109.53167 39870 ft 515 kts 312°
2026-05-08 04:15 -3.18618 109.47736 39876 ft 515 kts 312°
2026-05-08 04:15 -3.13968 109.42328 39872 ft 515 kts 312°
2026-05-08 04:16 -3.09278 109.36877 39876 ft 515 kts 312°
2026-05-08 04:16 -3.04605 109.31447 39870 ft 515 kts 312°
2026-05-08 04:17 -2.99959 109.26048 39873 ft 514 kts 312°
2026-05-08 04:17 -2.95284 109.20618 39873 ft 515 kts 312°
2026-05-08 04:18 -2.90608 109.15185 39875 ft 515 kts 312°
2026-05-08 04:18 -2.85933 109.09766 39876 ft 514 kts 312°
2026-05-08 04:19 -2.81233 109.04338 39874 ft 514 kts 312°
2026-05-08 04:19 -2.76571 108.98940 39875 ft 514 kts 312°
2026-05-08 04:20 -2.71886 108.93526 39880 ft 514 kts 312°
2026-05-08 04:20 -2.67212 108.88121 39879 ft 513 kts 312°
2026-05-08 04:21 -2.62574 108.82758 39877 ft 512 kts 312°
2026-05-08 04:21 -2.57915 108.77372 39878 ft 512 kts 312°
2026-05-08 04:22 -2.53251 108.71981 39879 ft 512 kts 312°
2026-05-08 04:22 -2.48585 108.66590 39878 ft 512 kts 312°
2026-05-08 04:23 -2.43930 108.61190 39878 ft 513 kts 311°
2026-05-08 04:23 -2.39272 108.55784 39884 ft 513 kts 312°
2026-05-08 04:24 -2.34598 108.50366 39884 ft 514 kts 312°
2026-05-08 04:24 -2.29929 108.44951 39889 ft 514 kts 312°
2026-05-08 04:25 -2.25295 108.39579 39885 ft 511 kts 311°
2026-05-08 04:25 -2.20647 108.34191 39883 ft 511 kts 311°
2026-05-08 04:26 -2.15993 108.28796 39884 ft 511 kts 311°
2026-05-08 04:26 -2.11349 108.23413 39886 ft 511 kts 311°
2026-05-08 04:27 -2.06709 108.18036 39887 ft 511 kts 311°
2026-05-08 04:27 -2.02091 108.12681 39886 ft 511 kts 311°
2026-05-08 04:28 -1.97446 108.07294 39884 ft 512 kts 311°
2026-05-08 04:28 -1.92784 108.01889 39885 ft 514 kts 311°
2026-05-08 04:29 -1.88119 107.96478 39883 ft 514 kts 311°
2026-05-08 04:29 -1.83443 107.91058 39883 ft 514 kts 311°
2026-05-08 04:30 -1.79560 107.86556 39887 ft 515 kts 311°
2026-05-08 04:30 -1.74880 107.81131 39888 ft 515 kts 311°
2026-05-08 04:31 -1.70201 107.75708 39887 ft 515 kts 311°
2026-05-08 04:31 -1.65515 107.70277 39889 ft 515 kts 311°
2026-05-08 04:32 -1.60858 107.64879 39888 ft 515 kts 311°
2026-05-08 04:32 -1.56179 107.59457 39888 ft 515 kts 311°
2026-05-08 04:33 -1.51492 107.54026 39891 ft 516 kts 311°
2026-05-08 04:33 -1.46793 107.48582 39888 ft 516 kts 311°
2026-05-08 04:34 -1.42091 107.43134 39888 ft 517 kts 311°
2026-05-08 04:34 -1.37422 107.37724 39890 ft 517 kts 311°
2026-05-08 04:35 -1.32670 107.32320 39892 ft 518 kts 313°
2026-05-08 04:35 -1.27870 107.26951 39890 ft 517 kts 312°
2026-05-08 04:36 -1.23110 107.21547 39888 ft 516 kts 312°
2026-05-08 04:36 -1.18339 107.16192 39884 ft 516 kts 312°
2026-05-08 04:37 -1.13617 107.10850 39880 ft 515 kts 312°
2026-05-08 04:37 -1.08853 107.05489 39886 ft 516 kts 312°
2026-05-08 04:38 -1.04084 107.00105 39886 ft 516 kts 312°
2026-05-08 04:38 -0.99321 106.94737 39889 ft 515 kts 312°
2026-05-08 04:39 -0.94567 106.89377 39883 ft 514 kts 312°
2026-05-08 04:39 -0.89811 106.84015 39887 ft 516 kts 312°
2026-05-08 04:40 -0.85077 106.78679 39892 ft 516 kts 312°
2026-05-08 04:40 -0.80317 106.73313 39888 ft 515 kts 312°
2026-05-08 04:41 -0.75570 106.67962 39890 ft 514 kts 312°
2026-05-08 04:41 -0.70823 106.62610 39892 ft 514 kts 312°
2026-05-08 04:42 -0.66082 106.57267 39890 ft 513 kts 312°
2026-05-08 04:42 -0.61322 106.51966 39878 ft 511 kts 316°
2026-05-08 04:43 -0.56007 106.47238 39889 ft 512 kts 320°
2026-05-08 04:43 -0.50707 106.42542 39889 ft 513 kts 319°
2026-05-08 04:44 -0.45385 106.37791 39888 ft 512 kts 319°
2026-05-08 04:44 -0.40044 106.33067 39882 ft 511 kts 319°
2026-05-08 04:45 -0.34777 106.28371 39881 ft 512 kts 319°
2026-05-08 04:45 -0.29431 106.23634 39892 ft 513 kts 319°
2026-05-08 04:46 -0.24088 106.18878 39891 ft 513 kts 319°
2026-05-08 04:46 -0.18750 106.14141 39893 ft 513 kts 319°
2026-05-08 04:47 -0.13405 106.09389 39893 ft 514 kts 319°
2026-05-08 04:47 -0.08061 106.04643 39886 ft 513 kts 319°
2026-05-08 04:48 -0.02757 105.99930 39883 ft 511 kts 319°
2026-05-08 04:48 0.02555 105.95211 39880 ft 511 kts 319°
2026-05-08 04:49 0.07888 105.90474 39877 ft 512 kts 319°
2026-05-08 04:49 0.13206 105.85749 39878 ft 511 kts 319°
2026-05-08 04:50 0.18487 105.81057 39874 ft 511 kts 319°
2026-05-08 04:50 0.23805 105.76332 39875 ft 512 kts 319°
2026-05-08 04:51 0.29138 105.71594 39876 ft 513 kts 319°
2026-05-08 04:51 0.34467 105.66859 39876 ft 512 kts 319°
2026-05-08 04:52 0.39789 105.62131 39878 ft 511 kts 319°
2026-05-08 04:52 0.45096 105.57416 39872 ft 510 kts 319°
2026-05-08 04:53 0.50409 105.52695 39870 ft 511 kts 319°
2026-05-08 04:53 0.55732 105.47965 39875 ft 513 kts 319°
2026-05-08 04:54 0.61037 105.43251 39878 ft 514 kts 319°
2026-05-08 04:54 0.66792 105.39085 39887 ft 511 kts 331°
2026-05-08 04:55 0.73064 105.35671 39891 ft 512 kts 331°
2026-05-08 04:55 0.79247 105.32140 39893 ft 512 kts 331°
2026-05-08 04:56 0.85414 105.28708 39714 ft 497 kts 331°
2026-05-08 04:56 0.88408 105.27032 39518 ft 489 kts 331°
2026-05-08 04:56 0.91346 105.25367 39304 ft 481 kts 331°
2026-05-08 04:57 0.94198 105.23761 39125 ft 474 kts 331°
2026-05-08 04:57 0.97059 105.22163 38937 ft 467 kts 331°
2026-05-08 04:57 0.99877 105.20586 38676 ft 463 kts 331°
2026-05-08 04:57 1.02677 105.19011 38296 ft 461 kts 331°
2026-05-08 04:58 1.05465 105.17442 37907 ft 459 kts 331°
2026-05-08 04:58 1.08240 105.15886 37528 ft 457 kts 331°
2026-05-08 04:58 1.11020 105.14328 37060 ft 458 kts 331°
2026-05-08 04:58 1.13791 105.12772 36557 ft 459 kts 331°
2026-05-08 04:59 1.16593 105.11197 36077 ft 460 kts 331°
2026-05-08 04:59 1.19416 105.09703 35644 ft 458 kts 338°
2026-05-08 04:59 1.22388 105.08768 35275 ft 451 kts 350°
2026-05-08 04:59 1.25531 105.08473 34899 ft 444 kts
2026-05-08 05:00 1.28534 105.08838 34541 ft 438 kts 14°
2026-05-08 05:00 1.31402 105.09782 34193 ft 431 kts 25°
2026-05-08 05:00 1.33993 105.11242 33832 ft 426 kts 36°
2026-05-08 05:00 1.36228 105.13146 33437 ft 420 kts 47°
2026-05-08 05:01 1.38046 105.15423 33047 ft 416 kts 58°
2026-05-08 05:01 1.39385 105.17968 32670 ft 412 kts 69°
2026-05-08 05:01 1.40218 105.20692 32302 ft 410 kts 79°
2026-05-08 05:01 1.40531 105.23509 31936 ft 408 kts 89°
2026-05-08 05:02 1.40322 105.26325 31531 ft 407 kts 99°
2026-05-08 05:02 1.39593 105.29059 31060 ft 407 kts 110°
2026-05-08 05:02 1.38376 105.31604 30601 ft 406 kts 120°
2026-05-08 05:02 1.36715 105.33877 30146 ft 405 kts 130°
2026-05-08 05:03 1.34667 105.35806 29658 ft 405 kts 140°
2026-05-08 05:03 1.32309 105.37328 29148 ft 404 kts 149°
2026-05-08 05:03 1.29858 105.38684 28611 ft 402 kts 149°
2026-05-08 05:03 1.27414 105.40052 28014 ft 402 kts 148°
2026-05-08 05:04 1.24978 105.41429 27443 ft 401 kts 148°
2026-05-08 05:04 1.22549 105.42796 26890 ft 401 kts 148°
2026-05-08 05:04 1.20115 105.44159 26326 ft 400 kts 148°
2026-05-08 05:04 1.17694 105.45515 25786 ft 399 kts 148°
2026-05-08 05:05 1.15308 105.46856 25364 ft 395 kts 148°
2026-05-08 05:05 1.12931 105.48191 25033 ft 389 kts 148°
2026-05-08 05:05 1.10593 105.49503 24770 ft 380 kts 148°
2026-05-08 05:05 1.08236 105.50647 24498 ft 374 kts 157°
2026-05-08 05:06 1.05742 105.51358 24152 ft 373 kts 166°
2026-05-08 05:06 1.03169 105.51636 23801 ft 372 kts 176°
2026-05-08 05:06 1.00592 105.51475 23458 ft 371 kts 186°
2026-05-08 05:06 0.98078 105.50881 23060 ft 371 kts 196°
2026-05-08 05:07 0.95703 105.49873 22654 ft 371 kts 206°
2026-05-08 05:07 0.93528 105.48475 22259 ft 371 kts 216°
2026-05-08 05:07 0.91620 105.46728 21861 ft 370 kts 226°
2026-05-08 05:07 0.90061 105.44725 21491 ft 369 kts 236°
2026-05-08 05:08 0.88850 105.42477 21126 ft 368 kts 246°
2026-05-08 05:08 0.88034 105.40068 20752 ft 366 kts 256°
2026-05-08 05:08 0.87630 105.37564 20395 ft 364 kts 265°
2026-05-08 05:08 0.87644 105.35047 20030 ft 361 kts 275°
2026-05-08 05:09 0.88069 105.32582 19675 ft 358 kts 285°
2026-05-08 05:09 0.88885 105.30235 19324 ft 355 kts 295°
2026-05-08 05:09 0.90054 105.28075 18979 ft 352 kts 304°
2026-05-08 05:09 0.91539 105.26151 18639 ft 349 kts 314°
2026-05-08 05:10 0.93301 105.24494 18291 ft 345 kts 323°
2026-05-08 05:10 0.97330 105.22014 17569 ft 344 kts 332°
2026-05-08 05:10 0.99498 105.20793 17329 ft 372 kts 332°
2026-05-08 05:11 1.01812 105.19488 17146 ft 387 kts 332°
2026-05-08 05:11 1.04165 105.18166 16944 ft 390 kts 332°
2026-05-08 05:11 1.06567 105.16822 16709 ft 398 kts 332°
2026-05-08 05:11 1.08985 105.15467 16442 ft 397 kts 332°
2026-05-08 05:12 1.11394 105.14113 16176 ft 396 kts 332°
2026-05-08 05:12 1.13793 105.12767 15890 ft 394 kts 332°
2026-05-08 05:12 1.16146 105.11378 15608 ft 392 kts 327°
2026-05-08 05:12 1.18094 105.09491 15267 ft 400 kts 309°
2026-05-08 05:13 1.19481 105.07069 14969 ft 402 kts 295°
2026-05-08 05:13 1.20544 105.04484 14715 ft 402 kts 291°
2026-05-08 05:13 1.21554 105.01885 14451 ft 400 kts 293°
2026-05-08 05:13 1.22694 104.99357 14185 ft 398 kts 296°
2026-05-08 05:14 1.23861 104.96848 13927 ft 396 kts 295°
2026-05-08 05:14 1.24956 104.94325 13660 ft 395 kts 294°
2026-05-08 05:14 1.26018 104.91801 13362 ft 393 kts 294°
2026-05-08 05:14 1.27101 104.89302 13076 ft 390 kts 294°
2026-05-08 05:15 1.28185 104.86855 12765 ft 388 kts 294°
2026-05-08 05:15 1.29266 104.84389 12478 ft 385 kts 294°
2026-05-08 05:15 1.30309 104.81977 12158 ft 371 kts 294°
2026-05-08 05:15 1.31320 104.79647 11783 ft 360 kts 294°
2026-05-08 05:16 1.32310 104.77379 11395 ft 350 kts 294°
2026-05-08 05:16 1.33270 104.75183 11008 ft 341 kts 294°
2026-05-08 05:16 1.34209 104.73026 10558 ft 335 kts 293°
2026-05-08 05:16 1.35117 104.70938 10140 ft 329 kts 293°
2026-05-08 05:17 1.36024 104.68856 9717 ft 323 kts 293°
2026-05-08 05:17 1.36913 104.66815 9331 ft 315 kts 293°
2026-05-08 05:17 1.37771 104.64846 9061 ft 304 kts 293°
2026-05-08 05:17 1.38602 104.62937 8782 ft 294 kts 293°
2026-05-08 05:18 1.39408 104.61088 8508 ft 286 kts 293°
2026-05-08 05:18 1.39929 104.59891 8327 ft 280 kts 293°
2026-05-08 05:18 1.40697 104.58128 8049 ft 273 kts 293°
2026-05-08 05:18 1.41445 104.56411 7774 ft 266 kts 293°
2026-05-08 05:19 1.42172 104.54741 7503 ft 259 kts 293°
2026-05-08 05:19 1.42883 104.53108 7238 ft 253 kts 293°
2026-05-08 05:19 1.43572 104.51525 7066 ft 243 kts 293°
2026-05-08 05:19 1.44251 104.49967 6860 ft 246 kts 293°
2026-05-08 05:20 1.44934 104.48397 6665 ft 246 kts 293°
2026-05-08 05:20 1.45608 104.46850 6440 ft 246 kts 293°
2026-05-08 05:20 1.46300 104.45260 6221 ft 253 kts 293°
2026-05-08 05:20 1.47003 104.43646 6059 ft 253 kts 293°
2026-05-08 05:21 1.47707 104.42030 5875 ft 254 kts 293°
2026-05-08 05:21 1.48414 104.40406 5701 ft 254 kts 293°
2026-05-08 05:21 1.49117 104.38793 5509 ft 253 kts 293°
2026-05-08 05:21 1.49820 104.37176 5327 ft 253 kts 293°
2026-05-08 05:22 1.50526 104.35555 5165 ft 255 kts 293°
2026-05-08 05:22 1.51235 104.33926 5013 ft 255 kts 293°
2026-05-08 05:22 1.51944 104.32299 4843 ft 255 kts 293°
2026-05-08 05:22 1.52636 104.30707 4687 ft 254 kts 293°
2026-05-08 05:23 1.53342 104.29088 4511 ft 254 kts 293°
2026-05-08 05:23 1.54045 104.27474 4412 ft 252 kts 293°
2026-05-08 05:23 1.54738 104.25881 4348 ft 252 kts 293°
2026-05-08 05:23 1.55414 104.24329 4232 ft 234 kts 293°
2026-05-08 05:24 1.56036 104.22888 4050 ft 219 kts 292°
2026-05-08 05:24 1.56218 104.21402 3675 ft 218 kts 264°
2026-05-08 05:24 1.55973 104.19926 3550 ft 216 kts 260°
2026-05-08 05:24 1.55715 104.18425 3501 ft 223 kts 260°
2026-05-08 05:25 1.55448 104.16863 3511 ft 231 kts 260°
2026-05-08 05:25 1.55176 104.15267 3510 ft 233 kts 260°
2026-05-08 05:25 1.54904 104.13669 3511 ft 234 kts 260°
2026-05-08 05:25 1.54633 104.12065 3509 ft 234 kts 260°
2026-05-08 05:26 1.54362 104.10458 3504 ft 234 kts 260°
2026-05-08 05:26 1.54090 104.08856 3451 ft 231 kts 260°
2026-05-08 05:26 1.53831 104.07332 3313 ft 213 kts 260°
2026-05-08 05:26 1.53594 104.05937 3168 ft 194 kts 260°
2026-05-08 05:27 1.53054 104.04775 2816 ft 184 kts 227°
2026-05-08 05:27 1.51993 104.04199 2654 ft 168 kts 194°
2026-05-08 05:27 1.50863 104.04052 2737 ft 162 kts 188°
2026-05-08 05:27 1.49720 104.03888 2749 ft 168 kts 188°
2026-05-08 05:28 1.48625 104.03538 2711 ft 167 kts 201°
2026-05-08 05:28 1.47557 104.03105 2478 ft 166 kts 202°
2026-05-08 05:28 1.46498 104.02663 2054 ft 163 kts 202°
2026-05-08 05:28 1.45463 104.02224 1640 ft 158 kts 202°
2026-05-08 05:29 1.44481 104.01807 1441 ft 152 kts 202°
2026-05-08 05:29 1.43488 104.01386 1266 ft 157 kts 202°
2026-05-08 05:29 1.43163 104.01246 1193 ft 158 kts 202°
2026-05-08 05:30 1.42503 104.00967 1072 ft 159 kts 202°
2026-05-08 05:30 1.41511 104.00545 878 ft 151 kts 201°
2026-05-08 05:30 1.40539 104.00133 668 ft 151 kts 202°
2026-05-08 05:31 1.39590 103.99719 472 ft 149 kts 202°
2026-05-08 05:31 1.38650 103.99321 255 ft 146 kts 202°
2026-05-08 05:31 1.37721 103.98938 84 ft 144 kts 201°
2026-05-08 05:31 1.36990 103.98635 30 ft 129 kts 202°
2026-05-08 05:32 1.36456 103.98410 29 ft 45 kts 202°
2026-05-08 05:32 1.36160 103.98292 29 ft 44 kts 193°
2026-05-08 05:32 1.35937 103.98321 29 ft 15 kts 124°
2026-05-08 05:32 1.35951 103.98384 29 ft 10 kts 39°
2026-05-08 05:33 1.36037 103.98425 29 ft 17 kts 23°
2026-05-08 05:33 1.36173 103.98483 28 ft 25 kts 23°
2026-05-08 05:33 1.36352 103.98558 29 ft 30 kts 22°
2026-05-08 05:33 1.36425 103.98628 29 ft 6 kts 107°
2026-05-08 05:34 1.36401 103.98685 29 ft 13 kts 112°
2026-05-08 05:34 1.36398 103.98768 29 ft 12 kts 54°
2026-05-08 05:34 1.36448 103.98811 29 ft 6 kts 77°
2026-05-08 05:34 1.36435 103.98856 29 ft 8 kts 113°
2026-05-08 05:35 1.36423 103.98887 29 ft 2 kts 112°
2026-05-08 05:35 1.36421 103.98891 29 ft 0 kts 112°